Location: Nelson
(41.2830°S, 173.2830°E)
Time: 18:28:46
(UTC+12:00)

Cosmos 1939 Rocket - Pass Details

Date: 14 May 2021
Orbit: 531 x 584 km, 97.4° (Epoch: 19 June)

Event Time Altitude Azimuth Distance (km) Brightness Sun altitude
Exits shadow 19:23:40 19° 181° (S) 1,450 4.9 -23.4°
Maximum altitude 19:26:34 57° 254° (WSW) 702 3.5 -23.9°
Drops below altitude 10° 19:30:39 10° 333° (NNW) 1,914 5.9 -24.7°
Sets 19:32:49 0° 336° (NNW) 2,807 6.8 -25.1°
